This demonstration page uses our WeatherBlox Daily Observations layout. Learn more.

Left ArrowRight Arrow

44.8408, -93.29828

Hourly Observations for July 17, 2021

Temp ( °F °C ) Dew Point ( °F °C ) Humidity (%) Winds ( mph kmh ) Pressure ( in mb ) Visibility ( mi km ) Precip ( " mm )
12:53 am 00:53 Clear 71 21.7 60 15.6 68 68 Calm 30.04 1017 10 16 0.00 0.00
1:53 am 01:53 Clear 67 19.4 60 15.6 79 79 Calm 30.06 1018 10 16 0.00 0.00
2:53 am 02:53 Clear 67 19.4 60 15.6 79 79 Calm 30.07 1018 9 14 0.00 0.00
3:53 am 03:53 Clear 67 19.4 61 16.1 81 81 Calm 30.08 1019 8 13 0.00 0.00
4:53 am 04:53 Clear 66 18.9 61 16.1 84 84 Calm 30.08 1019 8 13 0.00 0.00
5:53 am 05:53 Partly Cloudy with Mist and Fog 65 18.3 61 16.1 87 87 Calm 30.10 1019 6 10 0.00 0.00
6:53 am 06:53 Partly Cloudy 66 18.9 62 16.7 87 87 Calm 30.11 1020 8 13 0.00 0.00
7:53 am 07:53 Partly Cloudy 68 20 62 16.7 81 81 SSE 3 6 30.13 1020 8 13 0.00 0.00
8:53 am 08:53 Partly Cloudy 73 22.8 61 16.1 66 66 Calm 30.14 1021 8 13 0.00 0.00
9:53 am 09:53 Partly Cloudy 76 24.4 61 16.1 60 60 Calm 30.15 1021 10 16 0.00 0.00
10:53 am 10:53 Partly Cloudy 80 26.7 58 14.4 47 47 Calm 30.14 1021 10 16 0.00 0.00
11:53 am 11:53 Partly Cloudy 82 27.8 58 14.4 44 44 ESE 8 13 30.14 1021 10 16 0.00 0.00
12:53 pm 12:53 Partly Cloudy 85 29.4 54 12.2 35 35 SE 9 15 30.14 1021 10 16 0.00 0.00
1:53 pm 13:53 Mostly Sunny 84 28.9 52 11.1 33 33 SE 12 19 30.14 1021 10 16 0.00 0.00
2:53 pm 14:53 Mostly Sunny 85 29.4 52 11.1 32 32 SE 6 9 30.14 1021 10 16 0.00 0.00
3:53 pm 15:53 Mostly Sunny 86 30 53 11.7 32 32 SSE 6 9 30.12 1020 10 16 0.00 0.00
4:53 pm 16:53 Mostly Sunny 85 29.4 54 12.2 35 35 SSE 12 19 30.13 1020 10 16 0.00 0.00
5:53 pm 17:53 Mostly Sunny 85 29.4 55 12.8 36 36 SSE 10 17 30.12 1020 10 16 0.00 0.00
6:53 pm 18:53 Mostly Sunny 84 28.9 56 13.3 38 38 SE 8 13 30.12 1020 10 16 0.00 0.00
7:53 pm 19:53 Sunny 82 27.8 57 13.9 42 42 SSE 8 13 30.13 1020 10 16 0.00 0.00
8:53 pm 20:53 Sunny 79 26.1 58 14.4 49 49 SSE 7 11 30.14 1021 10 16 0.00 0.00
9:53 pm 21:53 Clear 78 25.6 58 14.4 50 50 SSE 5 7 30.15 1021 10 16 0.00 0.00
10:53 pm 22:53 Clear 75 23.9 59 15 58 58 SSE 6 9 30.16 1021 10 16 0.00 0.00
11:53 pm 23:53 Clear 75 23.9 58 14.4 55 55 Calm 30.18 1022 10 16 0.00 0.00

Powered by AerisWeather